sat.trackr.live / text

‹ back to catalog

STARLINK-31953

NORAD 59898 · 2024-100P

PAYLOAD ACTIVE UNKNOWN

§ Identity

Operator
Country
US
Launch date
2024-05-28
Launch site
AFETR
Launch vehicle
Mass (kg)
RCS (m²)

Purposes: comms

External: N2YO · Heavens-Above · Gunter

§ Orbital elements

Epoch: 2026-05-25T02:37:36.285600Z

Period
94.27 min
Inclination
43.0036°
Eccentricity
0.0000809
Mean motion
15.27580576 rev/d
Perigee alt
482.5 km
Apogee alt
483.6 km
Semi-major
6,861.2 km
B*
9.9164e-6
RAAN
50.4184°
Arg perigee
259.7235°
Mean anomaly
100.3526°
Rev number
11,288

§ Raw data

STARLINK-319531 59898U 24100P   26145.10944775  .00000011  00000+0  99164-5 0  99962 59898  43.0036  50.4184 0000809 259.7235 100.3526 15.27580576112882

JSON: /api/v1/satellites/59898 · /tle

For live sub-satellite position, see the globe view (requires WebGL).

§ Visibility from observer

Set your observer location to see the next 7 days of passes ≥ 10°. The values pass through the URL so the page stays shareable.

No JS? Fill the form by hand. The geolocation button needs JavaScript.